Regional Weather Roundup
Issued by NWS Upton, NY

Current Version | Previous Version | Graphics & Text | Print | Product List | Glossary Off
Versions: 1 2 3 4 5 6 7 8 9 10 11 12 13 14 15 16 17 18 19 20 21 22 23 24 25 26 27

000
ASUS41 KOKX 242305
RWROKX

REGIONAL WEATHER ROUNDUP
NATIONAL WEATHER SERVICE NEW YORK NY
700 PM EDT SUN JUL 24 2016

NOTE: "FAIR" INDICATES FEW OR NO CLOUDS BELOW 12,000 FEET WITH NO
SIGNIFICANT WEATHER AND/OR OBSTRUCTIONS TO VISIBILITY.

NYZ071-072-176-178-NJZ106-104-250000-
NEW YORK CITY METRO AREA

CITY           SKY/WX    TMP DP  RH WIND       PRES   REMARKS
Central Park   SUNNY     85  66  53 VRB3      29.96S
LaGuardia APRT PTSUNNY   87  65  47 S10       29.92S
Kennedy INTL   PTSUNNY   79  68  69 S18       29.95S
Newark/Liberty PTSUNNY   92  60  34 NW12      29.92S HX  91
BRNX BOT. GARD   N/A     82  64  54 SE2       29.96R
Wall St Helipt PTCLDY    88  68  51 W3        29.94S HX  91
Teterboro      MOSUNNY   91  60  35 W10       29.91R HX  90
$$

NYZ177-179-078>081-250000-
LONG ISLAND NEW YORK

CITY           SKY/WX    TMP DP  RH WIND       PRES   REMARKS
FARMINGDALE    SUNNY     81  67  62 S15       29.96S
ISLIP          PTSUNNY   80  66  62 SW12      29.96R
SHIRLEY        SUNNY     80  65  59 SW9       29.97R
RIVERHEAD      NOT AVBL
WESTHAMPTON    SUNNY     79  64  60 SW17      29.98R
SOUTHAMPTON      N/A     77  70  78 SW7       29.93R
BRIDGEHAMPTON    N/A     79  64  61 SW2       29.94S
EAST HAMPTON   FAIR      76  66  71 SW7       29.95S
MONTAUK POINT    N/A     78  65  63 SW6       29.96R
$$

NYZ052-065-067-250000-
HUDSON VALLEY

CITY           SKY/WX    TMP DP  RH WIND       PRES   REMARKS
WHITE PLAINS   SUNNY     82  64  54 S7        29.95S
NEWBURGH       MOSUNNY   90  59  35 NW9       29.96S
MONTGOMERY     MOSUNNY   89  61  38 CALM      29.94S
POUGHKEEPSIE   MOSUNNY   90  62  39 CALM      29.92S HX  90
ALBANY         PTSUNNY   85  55  35 W8        29.95R
$$

NJZ001-105-106-008-010-013-015-019>022-104-250000-
NEW JERSEY

CITY           SKY/WX    TMP DP  RH WIND       PRES   REMARKS
NEWARK/LIBERTY PTSUNNY   92  60  34 NW12      29.92S HX  91
TETERBORO      MOSUNNY   91  60  35 W10       29.91R HX  90
CALDWELL       MOSUNNY   91  63  39 SW3       29.93S HX  92
MORRISTOWN     MOSUNNY   88  66  48 W3        29.94S HX  90
SOMERVILLE     PTSUNNY   89  67  47 CALM      29.91S HX  92
SUSSEX         PTSUNNY   89  64  43 SW3       29.96R HX  90
ANDOVER          N/A     88  66  48 CALM      29.96R HX  90
TRENTON        CLOUDY    90  63  40 W7        29.93S HX  91
MILLVILLE      PTSUNNY   84  64  50 VRB3      29.97S
ATLANTIC CITY  CLOUDY    84  65  52 S8        29.97S
WRIGHTSTOWN    MOSUNNY   85  68  56 S8        29.92R
TOMS RIVER     MOSUNNY   83  68  60 S6        29.96S
BELMAR         MOSUNNY   84  69  60 S6        29.97R
$$

PAZ047>061-062-071-250000-
EASTERN PENNSYLVANIA

CITY           SKY/WX    TMP DP  RH WIND       PRES   REMARKS
PHILADELPHIA   CLOUDY    90  66  45 SW10      29.95S HX  92
ALLENTOWN      MOSUNNY   93  59  31 W5        29.94F HX  92
SCRANTON       PTSUNNY   90  56  31 SW8       29.96S
$$

CTZ002-004>006-009-010-012-RIZ004-006-007-MAZ004-011-015-250000-
SOUTHERN NEW ENGLAND
 IN CT

CITY           SKY/WX    TMP DP  RH WIND       PRES   REMARKS
BRADLEY INTL   CLOUDY    88  54  31 NW8       29.93R
HARTFORD       CLOUDY    92  55  28 N8        29.92R HX  90
DANBURY        MOSUNNY   84  63  49 S10       29.96R
WTRBRY/OXFORD  PTSUNNY   84  59  42 SW9       30.00R
BRIDGEPORT     SUNNY     84  67  56 S12       29.94S
MERIDEN        MOSUNNY   92  55  28 VRB6      29.93S HX  90
NEW HAVEN      SUNNY     83  65  54 SW6       29.94S
CHESTER        FAIR      81  66  61 S8        29.96R
GROTON         SUNNY     77  66  68 W6        29.94R
WILLIMANTIC    NOT AVBL

 IN RI

CITY           SKY/WX    TMP DP  RH WIND       PRES   REMARKS
PROVIDENCE     PTSUNNY   82  66  58 S8        29.93R
BLOCK ISLAND   MOSUNNY   74  68  81 SW13      29.96R
WESTERLY       MOSUNNY   78  63  59 W5        29.95R

 IN MA

CITY           SKY/WX    TMP DP  RH WIND       PRES   REMARKS
BOSTON         PTSUNNY   76  63  64 E7        29.92R
WORCESTER      SUNNY     84  49  29 NW7       29.98R
WESTFIELD      PTSUNNY   87  55  33 NW7       29.94R
PROVINCETOWN   MOSUNNY   76  65  68 S10       29.94R
NANTUCKET      CLOUDY    72  66  81 SW7       29.96R
$$

ANZ330-335-338-340-345-350-353-355-250000-
COASTAL MARINE OBSERVATIONS


STATION/POSITION TIME  SKY/WX   TEMP    WIND        PRES    VSBY  WAVE
                                AIR SEA DIR/SP/G                  HT/PER
                 (UTC)          (F)     (DEG/KT/KT) (MB)    (MI)  (FT/S)
NY HARB ENTRANCE 2150            77 74  200/ 14/ 16 1013.8          2/ 3
20S FIRE ISLAND  2150            76 74  200/ 12/ 14 1014.0          2/ 6
GREAT SOUTH BAY  2200            77 82  210/ 12/ 16   N/A
23 SSW MONTAUK P 2150            75 72  220/  8/ 10 1014.7          2/ 6
15 E BARNEGAT LI 2222               77                N/A           2/ 6
HUDSON CANYON    2150            78 78              1015.0          3/ 6
KINGS POINT      2200            80 74                N/A
EXECUTION ROCKS  2200            81     180/ 12/ 16   N/A
CENTRAL LI SOUND 2200            79 75  220/ 10/ 12   N/A           1/ 2
EASTERN LI SOUND 2200            74 67  220/ 12/ 14   N/A
ROBBINS REEF     2206            80     160/ 16/ 17 1012.8
$$


>>>>>>>>>>>>>>>>>>>>>>>>>>>> KEY <<<<<<<<<<<<<<<<<<<<<<<<<<<
>                                                          <
>     SKY/WX - SKY CONDITION/PRESENT WEATHER               <
>     TMP    - TEMPERATURE IN FAHRENHEIT                   <
>     DP     - DEWPOINT IN FAHRENHEIT                      <
>     RH     - RELATIVE HUMIDITY IN PERCENT                <
>     WIND   - DIRECTION AND SPEED IN MPH                  <
>     PRES   - MEAN SEA LEVEL PRESSURE IN INCHES OF HG     <
>     WCI    - WIND CHILL INDEX                            <
>     VSB    - VISIBILITY IN MILES                         <
>     HX     - HEAT INDEX                                  <
>     TC     - TEMPERATURE IN CELSIUS                      <
>     VRB    - VARIABLE WIND DIRECTION                     <
>                                                          <
>>>>>>>>>>>>>>>>>>>>>>>>>>>> KEY <<<<<<<<<<<<<<<<<<<<<<<<<<<






USA.gov is the U.S. government's official web portal to all federal, state and local government web resources and services.